Location: Newark
(49.8348°N, 24.0280°E)
Time: 13:37:17
(UTC+00:00)

S-56A Canister/Altair - Pass Details

Date: 29 January 2020
Orbit: 633 x 2500 km, 38.9° (Epoch: 24 February)

Event Time Altitude Azimuth Distance (km) Brightness Sun altitude
Rises 20:37:23 0° 259° (W) 3,676 11.3 -50.1°
Enters shadow 20:37:48 - 258° (WSW) 3,526 11.2 -50.1°
Reaches altitude 10° 20:40:52 10° 245° (WSW) 2,462 - -50.5°
Maximum altitude 20:44:55 21° 197° (SSW) 1,594 - -51.0°
Drops below altitude 10° 20:48:24 10° 148° (SSE) 2,064 - -51.4°
Sets 20:51:02 0° 131° (SE) 2,918 - -51.6°
